| time (UTC) | temp F | wind direction | speed MPH | gust MPH | rain 1hr in | rain 24hr in | rain mn in | humidity % | barometer mb |
| 20260503033004 | 46 | 306 | 3.0 | 11.0 | 0.05 | 0.21 | 0.21 | 83 | 1016.5 |
| 20260503032504 | 46 | 300 | 3.0 | 11.0 | 0.05 | 0.21 | 0.21 | 83 | 1016.5 |
| 20260503032004 | 46 | 302 | 3.0 | 9.0 | 0.06 | 0.21 | 0.21 | 83 | 1016.5 |
| 20260503031504 | 46 | 292 | 3.0 | 9.0 | 0.06 | 0.21 | 0.21 | 82 | 1016.5 |
| 20260503031003 | 47 | 271 | 2.0 | 5.0 | 0.05 | 0.20 | 0.20 | 82 | 1016.5 |
| 20260503030504 | 47 | 245 | 1.0 | 5.0 | 0.06 | 0.20 | 0.20 | 82 | 1016.4 |
| 20260503030005 | 47 | 220 | 1.0 | 4.0 | 0.07 | 0.20 | 0.20 | 82 | 1016.4 |
| 20260503025504 | 47 | 236 | 1.0 | 4.0 | 0.08 | 0.19 | 0.19 | 82 | 1016.6 |
| 20260503025004 | 46 | 253 | 1.0 | 4.0 | 0.08 | 0.19 | 0.19 | 82 | 1016.5 |
| 20260503023504 | 47 | 312 | 1.0 | 5.0 | 0.06 | 0.17 | 0.17 | 82 | 1016.7 |
| 20260503022504 | 47 | 307 | 1.0 | 6.0 | 0.06 | 0.15 | 0.15 | 81 | 1016.6 |
| 20260503022004 | 47 | 295 | 1.0 | 6.0 | 0.06 | 0.15 | 0.15 | 81 | 1016.7 |
| 20260503021504 | 47 | 298 | 1.0 | 5.0 | 0.07 | 0.15 | 0.15 | 81 | 1016.6 |
| 20260503020504 | 47 | 316 | 4.0 | 10.0 | 0.07 | 0.14 | 0.14 | 82 | 1016.7 |
| 20260503020005 | 47 | 321 | 4.0 | 9.0 | 0.05 | 0.12 | 0.12 | 82 | 1016.7 |
| 20260503015503 | 47 | 337 | 4.0 | 9.0 | 0.05 | 0.11 | 0.11 | 82 | 1016.7 |
| 20260503015004 | 47 | 351 | 5.0 | 13.0 | 0.05 | 0.11 | 0.11 | 82 | 1016.8 |
| 20260503014504 | 47 | 341 | 4.0 | 13.0 | 0.05 | 0.11 | 0.11 | 81 | 1016.6 |
| 20260503014003 | 47 | 316 | 3.0 | 8.0 | 0.05 | 0.11 | 0.11 | 80 | 1016.8 |
| 20260503013504 | 47 | 293 | 2.0 | 8.0 | 0.05 | 0.11 | 0.11 | 80 | 1016.7 |
| 20260503013004 | 47 | 277 | 3.0 | 10.0 | 0.05 | 0.09 | 0.09 | 80 | 1016.6 |
| 20260503012503 | 47 | 260 | 3.0 | 10.0 | 0.05 | 0.09 | 0.09 | 79 | 1016.6 |
| 20260503012004 | 47 | 209 | 2.0 | 6.0 | 0.05 | 0.09 | 0.09 | 79 | 1016.4 |
| 20260503011004 | 47 | 158 | 1.0 | 4.0 | 0.02 | 0.07 | 0.07 | 79 | 1016.7 |
| 20260503010504 | 47 | 130 | 1.0 | 4.0 | 0.02 | 0.07 | 0.07 | 79 | 1016.7 |
| 20260503010005 | 47 | 157 | 1.0 | 5.0 | 0.02 | 0.07 | 0.07 | 79 | 1016.8 |
| 20260503005504 | 47 | 193 | 1.0 | 5.0 | 0.01 | 0.06 | 0.06 | 79 | 1016.7 |
| 20260503005004 | 47 | 239 | 1.0 | 4.0 | 0.01 | 0.06 | 0.06 | 79 | 1016.7 |
| 20260503004504 | 46 | 241 | 1.0 | 4.0 | 0.01 | 0.06 | 0.06 | 79 | 1016.7 |
| 20260503003504 | 46 | 334 | 2.0 | 7.0 | 0.01 | 0.06 | 0.06 | 79 | 1016.7 |
| 20260503003004 | 46 | 309 | 2.0 | 7.0 | 0.00 | 0.05 | 0.05 | 78 | 1016.7 |
| 20260503002504 | 45 | 275 | 0.0 | 4.0 | 0.00 | 0.05 | 0.05 | 78 | 1016.7 |
| 20260503002004 | 45 | 129 | 1.0 | 4.0 | 0.01 | 0.05 | 0.05 | 78 | 1016.7 |
| 20260503001504 | 45 | 208 | 2.0 | 6.0 | 0.01 | 0.05 | 0.05 | 78 | 1016.8 |
| 20260503001004 | 46 | 227 | 3.0 | 7.0 | 0.01 | 0.05 | 0.05 | 78 | 1016.5 |
| 20260502235504 | 46 | 231 | 2.0 | 7.0 | 0.05 | 0.05 | 0.05 | 76 | 1017.1 |
| 20260502235004 | 46 | 232 | 1.0 | 4.0 | 0.05 | 0.05 | 0.05 | 75 | 1017.0 |
| 20260502234004 | 46 | 250 | 2.0 | 6.0 | 0.05 | 0.05 | 0.05 | 74 | 1017.2 |
| 20260502233004 | 47 | 249 | 3.0 | 7.0 | 0.05 | 0.05 | 0.05 | 73 | 1017.4 |
| 20260502232504 | 47 | 228 | 4.0 | 8.0 | 0.05 | 0.05 | 0.05 | 73 | 1017.2 |
| 20260502232003 | 47 | 227 | 3.0 | 8.0 | 0.04 | 0.04 | 0.04 | 72 | 1017.2 |
| 20260502231504 | 47 | 272 | 1.0 | 6.0 | 0.04 | 0.04 | 0.04 | 70 | 1017.5 |
| 20260502231004 | 48 | 15 | 2.0 | 6.0 | 0.04 | 0.04 | 0.04 | 69 | 1017.7 |
| 20260502230504 | 48 | 17 | 2.0 | 6.0 | 0.01 | 0.01 | 0.01 | 68 | 1017.9 |
| 20260502230005 | 48 | 283 | 3.0 | 7.0 | 0.00 | 0.00 | 0.00 | 68 | 1017.7 |
| 20260502225003 | 48 | 134 | 2.0 | 4.0 | 0.00 | 0.00 | 0.00 | 65 | 1017.6 |
| 20260502224003 | 48 | 143 | 1.0 | 4.0 | 0.00 | 0.00 | 0.00 | 63 | 1018.0 |
| 20260502223504 | 48 | 190 | 1.0 | 5.0 | 0.00 | 0.00 | 0.00 | 62 | 1017.6 |
| 20260502222004 | 49 | 119 | 3.0 | 6.0 | 0.00 | 0.00 | 0.00 | 60 | 1017.5 |
| 20260502221504 | 49 | 348 | 1.0 | 6.0 | 0.00 | 0.00 | 0.00 | 59 | 1017.6 |
| 20260502221003 | 49 | 314 | 1.0 | 6.0 | 0.00 | 0.00 | 0.00 | 59 | 1017.6 |
| 20260502220504 | 49 | 308 | 2.0 | 6.0 | 0.00 | 0.00 | 0.00 | 59 | 1017.5 |
| 20260502220004 | 49 | 291 | 2.0 | 6.0 | 0.00 | 0.00 | 0.00 | 59 | 1017.5 |
| 20260502215504 | 49 | 290 | 2.0 | 7.0 | 0.00 | 0.00 | 0.00 | 59 | 1017.4 |
| 20260502215003 | 49 | 296 | 3.0 | 7.0 | 0.00 | 0.00 | 0.00 | 59 | 1017.5 |
| 20260502214504 | 49 | 280 | 4.0 | 7.0 | 0.00 | 0.00 | 0.00 | 58 | 1017.4 |
| 20260502214004 | 49 | 286 | 4.0 | 11.0 | 0.00 | 0.00 | 0.00 | 59 | 1017.4 |
| 20260502213503 | 49 | 299 | 3.0 | 11.0 | 0.00 | 0.00 | 0.00 | 59 | 1017.4 |
| 20260502213004 | 49 | 294 | 2.0 | 8.0 | 0.00 | 0.00 | 0.00 | 59 | 1017.4 |
| 20260502212504 | 49 | 303 | 3.0 | 10.0 | 0.00 | 0.00 | 0.00 | 59 | 1017.4 |
| 20260502212004 | 50 | 299 | 4.0 | 13.0 | 0.00 | 0.00 | 0.00 | 58 | 1017.4 |
| 20260502210504 | 50 | 294 | 3.0 | 8.0 | 0.00 | 0.00 | 0.00 | 58 | 1017.3 |
| 20260502210005 | 50 | 301 | 3.0 | 8.0 | 0.00 | 0.00 | 0.00 | 58 | 1017.5 |
| 20260502205004 | 50 | 287 | 4.0 | 9.0 | 0.00 | 0.00 | 0.00 | 57 | 1017.6 |
| 20260502204504 | 50 | 283 | 3.0 | 9.0 | 0.00 | 0.00 | 0.00 | 56 | 1017.4 |
| 20260502203504 | 50 | 297 | 4.0 | 11.0 | 0.00 | 0.00 | 0.00 | 56 | 1017.7 |
| 20260502203004 | 50 | 295 | 4.0 | 11.0 | 0.00 | 0.00 | 0.00 | 55 | 1017.7 |
| 20260502202004 | 50 | 287 | 2.0 | 7.0 | 0.00 | 0.00 | 0.00 | 55 | 1017.8 |
| 20260502201504 | 50 | 311 | 2.0 | 10.0 | 0.00 | 0.00 | 0.00 | 54 | 1017.8 |
| 20260502201003 | 50 | 314 | 3.0 | 10.0 | 0.00 | 0.00 | 0.00 | 54 | 1017.8 |
| 20260502200504 | 50 | 312 | 3.0 | 10.0 | 0.00 | 0.00 | 0.00 | 53 | 1018.1 |
| 20260502200004 | 50 | 309 | 4.0 | 9.0 | 0.00 | 0.00 | 0.00 | 52 | 1017.8 |
| 20260502195503 | 50 | 309 | 3.0 | 10.0 | 0.00 | 0.00 | 0.00 | 52 | 1018.0 |
| 20260502195004 | 50 | 315 | 4.0 | 10.0 | 0.00 | 0.00 | 0.00 | 51 | 1018.0 |
| 20260502194504 | 51 | 327 | 4.0 | 9.0 | 0.00 | 0.00 | 0.00 | 51 | 1017.9 |
| 20260502193504 | 51 | 319 | 4.0 | 9.0 | 0.00 | 0.00 | 0.00 | 50 | 1018.0 |
| 20260502193004 | 51 | 314 | 4.0 | 9.0 | 0.00 | 0.00 | 0.00 | 50 | 1018.1 |
| 20260502192504 | 51 | 314 | 4.0 | 9.0 | 0.00 | 0.00 | 0.00 | 50 | 1018.1 |
| 20260502192003 | 51 | 311 | 4.0 | 9.0 | 0.00 | 0.00 | 0.00 | 49 | 1018.0 |
| 20260502191003 | 51 | 325 | 3.0 | 8.0 | 0.00 | 0.00 | 0.00 | 48 | 1018.0 |
| 20260502190503 | 51 | 318 | 4.0 | 8.0 | 0.00 | 0.00 | 0.00 | 48 | 1017.9 |
| 20260502185503 | 51 | 324 | 4.0 | 8.0 | 0.00 | 0.00 | 0.00 | 47 | 1017.9 |
| 20260502185004 | 51 | 315 | 3.0 | 8.0 | 0.00 | 0.00 | 0.00 | 46 | 1017.8 |
| 20260502184504 | 51 | 314 | 2.0 | 7.0 | 0.00 | 0.00 | 0.00 | 46 | 1017.9 |
| 20260502183504 | 52 | 314 | 3.0 | 7.0 | 0.00 | 0.00 | 0.00 | 45 | 1017.9 |
| 20260502183004 | 52 | 319 | 4.0 | 10.0 | 0.00 | 0.00 | 0.00 | 43 | 1018.0 |
| 20260502182503 | 52 | 323 | 4.0 | 10.0 | 0.00 | 0.00 | 0.00 | 43 | 1017.9 |
| 20260502182004 | 52 | 334 | 4.0 | 10.0 | 0.00 | 0.00 | 0.00 | 43 | 1017.8 |
| 20260502181504 | 52 | 335 | 4.0 | 9.0 | 0.00 | 0.00 | 0.00 | 43 | 1017.9 |
| 20260502181003 | 52 | 337 | 4.0 | 9.0 | 0.00 | 0.00 | 0.00 | 43 | 1017.6 |
| 20260502170503 | 53 | 336 | 7.0 | 19.0 | 0.00 | 0.00 | 0.00 | 38 | 1017.7 |
| 20260502164004 | 54 | 356 | 9.0 | 19.0 | 0.00 | 0.00 | 0.00 | 36 | 1017.8 |
| 20260502163504 | 54 | 344 | 8.0 | 19.0 | 0.00 | 0.00 | 0.00 | 36 | 1017.7 |
| 20260502163005 | 54 | 349 | 8.0 | 16.0 | 0.00 | 0.00 | 0.00 | 36 | 1017.7 |
| 20260502162504 | 54 | 348 | 9.0 | 17.0 | 0.00 | 0.00 | 0.00 | 36 | 1017.7 |
| 20260502162004 | 54 | 352 | 9.0 | 21.0 | 0.00 | 0.00 | 0.00 | 35 | 1017.8 |
| 20260502161504 | 55 | 348 | 8.0 | 21.0 | 0.00 | 0.00 | 0.00 | 35 | 1017.9 |
| 20260502161003 | 55 | 340 | 8.0 | 19.0 | 0.00 | 0.00 | 0.00 | 35 | 1017.7 |
| 20260502160503 | 55 | 351 | 8.0 | 16.0 | 0.00 | 0.00 | 0.00 | 36 | 1017.7 |
| 20260502152003 | 56 | 356 | 10.0 | 21.0 | 0.00 | 0.00 | 0.00 | 36 | 1018.0 |
| 20260502151504 | 56 | 356 | 11.0 | 26.0 | 0.00 | 0.00 | 0.00 | 36 | 1018.0 |
| 20260502150504 | 55 | 345 | 10.0 | 22.0 | 0.00 | 0.00 | 0.00 | 37 | 1018.1 |
| 20260502130504 | 55 | 330 | 10.0 | 25.0 | 0.00 | 0.00 | 0.00 | 37 | 1018.7 |
| 20260502123504 | 54 | 337 | 11.0 | 22.0 | 0.00 | 0.00 | 0.00 | 42 | 1018.9 |
| 20260502123005 | 54 | 348 | 11.0 | 26.0 | 0.00 | 0.00 | 0.00 | 42 | 1018.7 |
| 20260502122004 | 54 | 337 | 12.0 | 23.0 | 0.00 | 0.00 | 0.00 | 42 | 1018.7 |
| 20260502121505 | 54 | 346 | 9.0 | 23.0 | 0.00 | 0.00 | 0.00 | 42 | 1018.7 |
| 20260502120504 | 54 | 346 | 12.0 | 22.0 | 0.00 | 0.00 | 0.00 | 43 | 1019.0 |
| 20260502115504 | 54 | 5 | 11.0 | 22.0 | 0.00 | 0.00 | 0.00 | 45 | 1019.0 |
| 20260502115003 | 54 | 1 | 11.0 | 22.0 | 0.00 | 0.00 | 0.00 | 46 | 1019.1 |
| 20260502114004 | 54 | 346 | 12.0 | 24.0 | 0.00 | 0.00 | 0.00 | 44 | 1019.1 |
| 20260502113504 | 55 | 337 | 11.0 | 24.0 | 0.00 | 0.00 | 0.00 | 43 | 1018.9 |
| 20260502113004 | 55 | 355 | 10.0 | 21.0 | 0.00 | 0.00 | 0.00 | 43 | 1019.0 |
| 20260502112504 | 55 | 9 | 8.0 | 20.0 | 0.00 | 0.00 | 0.00 | 45 | 1018.8 |
| 20260502112004 | 55 | 1 | 9.0 | 21.0 | 0.00 | 0.00 | 0.00 | 45 | 1018.8 |
| 20260502111505 | 55 | 21 | 13.0 | 33.0 | 0.00 | 0.00 | 0.00 | 42 | 1018.9 |
| 20260502111004 | 56 | 34 | 14.0 | 33.0 | 0.00 | 0.00 | 0.00 | 40 | 1018.8 |
| 20260502110503 | 56 | 13 | 12.0 | 25.0 | 0.00 | 0.00 | 0.00 | 43 | 1019.0 |
| 20260502105504 | 55 | 9 | 11.0 | 26.0 | 0.00 | 0.00 | 0.00 | 44 | 1018.8 |
| 20260502103004 | 54 | 357 | 11.0 | 20.0 | 0.00 | 0.00 | 0.00 | 52 | 1019.0 |
| 20260502102004 | 53 | 10 | 9.0 | 22.0 | 0.00 | 0.00 | 0.00 | 55 | 1019.1 |
| 20260502101004 | 53 | 24 | 9.0 | 21.0 | 0.00 | 0.00 | 0.00 | 53 | 1019.4 |
| 20260502100504 | 53 | 27 | 10.0 | 22.0 | 0.00 | 0.00 | 0.00 | 52 | 1019.1 |
| 20260502091504 | 54 | 350 | 12.0 | 24.0 | 0.00 | 0.00 | 0.00 | 54 | 1019.2 |
| 20260502091004 | 54 | 350 | 10.0 | 22.0 | 0.00 | 0.00 | 0.00 | 55 | 1019.2 |
| 20260502090504 | 53 | 345 | 9.0 | 22.0 | 0.00 | 0.00 | 0.00 | 57 | 1019.1 |
| 20260502070504 | 51 | 350 | 5.0 | 20.0 | 0.00 | 0.00 | 0.00 | 61 | 1019.1 |
| 20260502070004 | 51 | 354 | 6.0 | 20.0 | 0.00 | 0.00 | 0.00 | 61 | 1019.3 |
| 20260502065504 | 51 | 349 | 5.0 | 17.0 | 0.00 | 0.00 | 0.00 | 61 | 1019.3 |
| 20260502065004 | 51 | 340 | 5.0 | 13.0 | 0.00 | 0.00 | 0.00 | 60 | 1019.5 |
| 20260502064504 | 51 | 344 | 6.0 | 13.0 | 0.00 | 0.00 | 0.00 | 59 | 1019.2 |
| 20260502064003 | 51 | 344 | 6.0 | 13.0 | 0.00 | 0.00 | 0.00 | 59 | 1019.0 |
| 20260502063504 | 52 | 349 | 7.0 | 16.0 | 0.00 | 0.00 | 0.00 | 58 | 1018.8 |
| 20260502063004 | 52 | 16 | 10.0 | 23.0 | 0.00 | 0.00 | 0.00 | 58 | 1018.9 |
| 20260502062503 | 52 | 27 | 11.0 | 23.0 | 0.00 | 0.00 | 0.00 | 56 | 1019.0 |
| 20260502062004 | 52 | 12 | 10.0 | 23.0 | 0.00 | 0.00 | 0.00 | 54 | 1019.0 |
| 20260502060504 | 53 | 358 | 3.0 | 9.0 | 0.00 | 0.00 | 0.00 | 55 | 1019.0 |
| 20260502060004 | 53 | 358 | 4.0 | 13.0 | 0.00 | 0.00 | 0.00 | 54 | 1018.8 |
| 20260502055504 | 53 | 13 | 5.0 | 13.0 | 0.00 | 0.00 | 0.00 | 53 | 1018.7 |
| 20260502055004 | 53 | 29 | 6.0 | 13.0 | 0.00 | 0.00 | 0.00 | 54 | 1018.7 |
| 20260502054504 | 52 | 348 | 7.0 | 13.0 | 0.00 | 0.00 | 0.00 | 53 | 1018.8 |
| 20260502054003 | 52 | 343 | 6.0 | 13.0 | 0.00 | 0.00 | 0.00 | 54 | 1018.6 |